This is the latest recevied weather packets stored in our database for station/object KD8DLP-13. If no packets are shown the sender has not sent any weather packets the latest 10 day(s).
| Time | Temp. | Humidity | Pressure | Rain* | Wind** | Luminosity | Snow |
|---|---|---|---|---|---|---|---|
| 1777804335 | 8.33° C | 62% | 1013 hPa | 0 mm | - | 1 W/m² | - |
| 1777804030 | 8.33° C | 62% | 1013.3 hPa | 0 mm | - | 1 W/m² | - |
| 1777803728 | 7.78° C | 63% | 1013.3 hPa | 0 mm | - | 0 W/m² | - |
| 1777803423 | 7.78° C | 64% | 1013.4 hPa | 0 mm | - | 0 W/m² | - |
| 1777803121 | 7.78° C | 65% | 1013.2 hPa | 0 mm | - | 0 W/m² | - |
| 1777802818 | 7.78° C | 66% | 1013.3 hPa | 0 mm | - | 0 W/m² | - |
| 1777802516 | 7.78° C | 66% | 1013.3 hPa | 0 mm | - | 0 W/m² | - |
| 1777802213 | 7.78° C | 66% | 1013.2 hPa | 0 mm | - | 0 W/m² | - |
| 1777801912 | 7.22° C | 67% | 1013.4 hPa | 0 mm | - | 0 W/m² | - |
| 1777801608 | 7.22° C | 68% | 1013.5 hPa | 0 mm | - | 0 W/m² | - |
| 1777801306 | 7.22° C | 68% | 1013.6 hPa | 0 mm | - | 0 W/m² | - |
| 1777801001 | 6.67° C | 70% | 1013.7 hPa | 0 mm | - | 0 W/m² | - |
| 1777800699 | 6.67° C | 71% | 1013.7 hPa | 0 mm | - | 0 W/m² | - |
| 1777800394 | 6.67° C | 73% | 1013.7 hPa | 0 mm | - | 0 W/m² | - |
| 1777800091 | 6.11° C | 75% | 1013.6 hPa | 0 mm | - | 0 W/m² | - |
| 1777799786 | 5.56° C | 76% | 1013.6 hPa | 0 mm | - | 0 W/m² | - |
| 1777799484 | 5.56° C | 77% | 1013.7 hPa | 0 mm | - | 0 W/m² | - |
| 1777799180 | 5° C | 78% | 1013.8 hPa | 0 mm | - | 0 W/m² | - |
| 1777798875 | 4.44° C | 78% | 1013.8 hPa | 0 mm | - | 0 W/m² | - |
| 1777798572 | 4.44° C | 79% | 1013.7 hPa | 0 mm | - | 0 W/m² | - |
| 1777798269 | 3.89° C | 78% | 1013.7 hPa | 0 mm | - | 0 W/m² | - |
| 1777797965 | 4.44° C | 77% | 1013.8 hPa | 0 mm | - | 0 W/m² | - |
| 1777797663 | 4.44° C | 76% | 1013.9 hPa | 0 mm | - | 0 W/m² | - |
| 1777797361 | 4.44° C | 76% | 1013.8 hPa | 0 mm | - | 0 W/m² | - |
| 1777797058 | 4.44° C | 76% | 1013.9 hPa | 0 mm | - | 0 W/m² | - |
* Rain latest hour (hover to see other rain measurements)
** Current wind speed in m/s (hover to see current wind gust speed)